Anniston, AL

8:17 AM CST on February 24, 2018 (GMT -0600)
Anniston Metro

Weather History for KANB - November, 2013

Change the Weather History Date:

Sunday, November 17, 2013

  Actual Average Record
Temperature  
Mean Temperature 67 °F 53 °F  
Max Temperature 72 °F 65 °F 85 °F (1958)
Min Temperature 62 °F 41 °F 21 °F (1997)
Degree Days  
Heating Degree Days 0    
Month to date heating degree days 191  
Since 1 July heating degree days 293  
Cooling Degree Days 2    
Growing Degree Days 17 (Base 50)    
Moisture  
Dew Point 63 °F    
Average Humidity 82    
Maximum Humidity 90    
Minimum Humidity 73    
Precipitation  
Precipitation T in 0.15 in 1.31 in (1987)
Month to date precipitation 0.71 2.46  
Year to date precipitation 64.08 43.43  
Sea Level Pressure  
Sea Level Pressure 29.98 in    
Wind  
Wind Speed 6 mph (South)    
Max Wind Speed 13 mph    
Max Gust Speed 24 mph    
Visibility 10 miles    
Events Rain    
T = Trace of Precipitation, MM = Missing Value Source: NWS Daily Summary

Daily Weather History Graph

Daily Weather History Graph

Search for Another Location

Airport or City:

Trip Planner

Search our weather history database for the weather conditions in past years. The results will help you decide how hot, cold, wet, or windy it might be!

Date:

Astronomy

Nov. 17, 2013 Rise Set
Actual Time 6:17 AM CST 4:39 PM CST
Civil Twilight 5:50 AM CST 5:05 PM CST
Nautical Twilight 5:20 AM CST 5:36 PM CST
Astronomical Twilight 4:50 AM CST 6:05 PM CST
Moon 4:55 PM CST (11/17) 6:11 AM CST (11/17)
Length of Visible Light 11h 15m
Length of Day
10h 22m
Full, 100% of the Moon is Illuminated
Nov 17
Full
Nov 25
Last Quarter
Dec 2
New
Dec 9
First Quarter
Dec 17
Full

Hourly Weather History & Observations

Time (CST) Temp. Dew Point Humidity Pressure Visibility Wind Dir Wind Speed Gust Speed Precip Events Conditions
12:53 AM 63.0 °F 55.9 °F 78% 30.07 in 10.0 mi SE 6.9 mph - N/A   Overcast
1:53 AM 63.0 °F 57.0 °F 81% 30.06 in 10.0 mi East 6.9 mph - N/A   Overcast
2:53 AM 64.0 °F 57.9 °F 80% 30.04 in 10.0 mi SE 8.1 mph - N/A   Overcast
3:28 AM 66.2 °F 57.2 °F 73% 30.04 in 10.0 mi SE 6.9 mph - N/A   Overcast
3:35 AM 66.2 °F 57.2 °F 73% 30.04 in 10.0 mi SSE 8.1 mph - N/A   Overcast
3:53 AM 66.0 °F 57.9 °F 75% 30.03 in 10.0 mi SE 5.8 mph - N/A   Overcast
4:30 AM 66.2 °F 57.2 °F 73% 30.04 in 10.0 mi SE 5.8 mph - N/A   Overcast
4:53 AM 64.9 °F 59.0 °F 81% 30.03 in 10.0 mi SE 9.2 mph - N/A   Overcast
5:53 AM 64.9 °F 59.0 °F 81% 30.02 in 10.0 mi East 5.8 mph - N/A   Overcast
6:05 AM 64.4 °F 59.0 °F 83% 30.02 in 10.0 mi SE 8.1 mph - N/A   Overcast
6:53 AM 64.0 °F 60.1 °F 87% 30.02 in 10.0 mi ESE 4.6 mph - N/A   Overcast
7:13 AM 64.4 °F 60.8 °F 88% 30.03 in 10.0 mi Variable 5.8 mph - N/A   Overcast
7:53 AM 64.9 °F 61.0 °F 87% 30.01 in 10.0 mi East 6.9 mph - N/A   Mostly Cloudy
8:53 AM 66.0 °F 61.0 °F 84% 30.01 in 10.0 mi SE 11.5 mph 18.4 mph N/A   Overcast
9:09 AM 66.2 °F 60.8 °F 83% 30.02 in 10.0 mi SE 6.9 mph - N/A   Overcast
9:53 AM 66.9 °F 62.1 °F 84% 30.02 in 10.0 mi South 4.6 mph - N/A   Overcast
10:53 AM 68.0 °F 63.0 °F 84% 29.99 in 10.0 mi South 4.6 mph - N/A   Overcast
11:26 AM 68.0 °F 62.6 °F 83% 29.99 in 10.0 mi SW 5.8 mph - N/A   Overcast
11:53 AM 69.1 °F 63.0 °F 81% 29.97 in 10.0 mi SSW 9.2 mph - 0.00 in Rain Light Rain
12:00 PM 69.8 °F 62.6 °F 78% 29.97 in 10.0 mi SSW 6.9 mph - 0.00 in   Overcast
12:53 PM 70.0 °F 64.0 °F 81% 29.94 in 10.0 mi South 10.4 mph 24.2 mph 0.00 in   Overcast
1:53 PM 70.0 °F 64.0 °F 81% 29.91 in 10.0 mi South 8.1 mph 16.1 mph N/A   Overcast
2:53 PM 71.1 °F 64.9 °F 81% 29.90 in 10.0 mi SSW 8.1 mph - N/A   Overcast
3:53 PM 70.0 °F 64.9 °F 84% 29.91 in 10.0 mi SSW 4.6 mph - N/A   Overcast
4:42 PM 69.8 °F 64.4 °F 83% 29.93 in 10.0 mi SSW 4.6 mph - N/A   Overcast
4:53 PM 70.0 °F 64.9 °F 84% 29.91 in 10.0 mi SW 4.6 mph - N/A   Overcast
5:37 PM 69.8 °F 66.2 °F 88% 29.94 in 9.0 mi SW 5.8 mph - N/A   Overcast
5:53 PM 70.0 °F 66.0 °F 87% 29.93 in 10.0 mi WSW 6.9 mph - N/A   Overcast
6:13 PM 71.6 °F 66.2 °F 83% 29.94 in 10.0 mi SW 6.9 mph - N/A   Overcast
6:37 PM 71.6 °F 66.2 °F 83% 29.95 in 10.0 mi WSW 6.9 mph - N/A   Overcast
6:53 PM 71.1 °F 66.9 °F 87% 29.94 in 10.0 mi WSW 8.1 mph - N/A   Overcast
7:53 PM 71.1 °F 66.9 °F 87% 29.94 in 10.0 mi WSW 5.8 mph - N/A   Overcast
8:53 PM 71.1 °F 66.9 °F 87% 29.93 in 10.0 mi Calm Calm - N/A   Overcast
9:17 PM 69.8 °F 66.2 °F 88% 29.95 in 10.0 mi West 3.5 mph - N/A   Overcast
9:29 PM 69.8 °F 66.2 °F 88% 29.95 in 10.0 mi West 3.5 mph - N/A   Overcast
9:53 PM 70.0 °F 66.9 °F 90% 29.94 in 10.0 mi West 3.5 mph - N/A   Overcast
10:53 PM 69.1 °F 66.9 °F 93% 29.93 in 8.0 mi WSW 4.6 mph - N/A   Overcast
11:08 PM 69.8 °F 66.2 °F 88% 29.95 in 8.0 mi West 4.6 mph - N/A   Overcast
11:53 PM 70.0 °F 68.0 °F 93% 29.93 in 9.0 mi WSW 4.6 mph - N/A   Overcast